Willmar, MN

5:00 AM CDT on August 18, 2017 (GMT -0500)
Willmar

Weather History for KBDH - March, 2013

Change the Weather History Date:

Monday, March 4, 2013

  Actual Average (KBBB) Record (KBBB)
Temperature  
Mean Temperature 29 °F -  
Max Temperature 30 °F 34 °F 58 °F (1968)
Min Temperature 28 °F 15 °F -15 °F (1960)
Degree Days  
Heating Degree Days 36    
Moisture  
Dew Point 20 °F    
Average Humidity 69    
Maximum Humidity 74    
Minimum Humidity 64    
Precipitation  
Precipitation 0.00 in - - ()
Sea Level Pressure  
Sea Level Pressure 29.90 in    
Wind  
Wind Speed 19 mph (ESE)    
Max Wind Speed 25 mph    
Max Gust Speed 31 mph    
Visibility 4 miles    
Events Snow    
Averages and records for this station are not official NWS values.
T = Trace of Precipitation, MM = Missing Value Source: NWS Daily Summary

Daily Weather History Graph

Daily Weather History Graph

Search for Another Location

Airport or City:

Trip Planner

Search our weather history database for the weather conditions in past years. The results will help you decide how hot, cold, wet, or windy it might be!

Date:

Astronomy

Mar. 04, 2013 Rise Set
Actual Time 6:52 AM CST 6:12 PM CST
Civil Twilight 6:23 AM CST 6:41 PM CST
Nautical Twilight 5:49 AM CST 7:15 PM CST
Astronomical Twilight 5:15 AM CST 7:50 PM CST
Moon 1:14 AM CST (3/4) 10:43 AM CST (3/4)
Length of Visible Light 12h 18m
Length of Day
11h 19m
Waning Gibbous, 52% of the Moon is Illuminated
Mar 4
Waning Gibbous
Mar 4
Last Quarter
Mar 11
New
Mar 19
First Quarter
Mar 27
Full

Hourly Weather History & Observations

Time (CST) Temp. Windchill Dew Point Humidity Pressure Visibility Wind Dir Wind Speed Gust Speed Precip Events Conditions
12:15 AM 28.4 °F 15.1 °F 19.4 °F 69% 29.90 in 1.5 mi ESE 20.7 mph 26.5 mph N/A Snow Light Snow
12:35 AM 28.4 °F 15.1 °F 19.4 °F 69% 29.90 in 2.0 mi ESE 20.7 mph - N/A Snow Light Snow
12:55 AM 28.4 °F 14.4 °F 19.4 °F 69% 29.89 in 2.5 mi ESE 23.0 mph 26.5 mph N/A Snow Light Snow
1:35 AM 28.4 °F 14.4 °F 19.4 °F 69% 29.88 in 2.5 mi ESE 23.0 mph 27.6 mph N/A Snow Light Snow
1:55 AM 28.4 °F 14.1 °F 19.4 °F 69% 29.87 in 2.0 mi ESE 24.2 mph 29.9 mph N/A Snow Light Snow
2:15 AM 28.4 °F 15.1 °F 19.4 °F 69% 29.87 in 1.8 mi ESE 20.7 mph 29.9 mph N/A Snow Light Snow
2:36 AM 28.4 °F 14.7 °F 19.4 °F 69% 29.87 in 1.0 mi ESE 21.9 mph - N/A Snow Snow
2:55 AM 28.4 °F 15.1 °F 19.4 °F 69% 29.87 in 1.0 mi ESE 20.7 mph 28.8 mph N/A Snow Snow
3:15 AM 28.4 °F 15.1 °F 19.4 °F 69% 29.86 in 1.0 mi ESE 20.7 mph 26.5 mph N/A Snow Light Snow
3:36 AM 28.4 °F 15.4 °F 19.4 °F 69% 29.85 in 1.0 mi ESE 19.6 mph 25.3 mph N/A Snow Snow
3:55 AM 28.4 °F 15.4 °F 19.4 °F 69% 29.85 in 1.0 mi ESE 19.6 mph 24.2 mph N/A Snow Light Snow
4:15 AM 28.4 °F 14.7 °F 19.4 °F 69% 29.85 in 1.2 mi ESE 21.9 mph 28.8 mph N/A Snow Light Snow
4:36 AM 28.4 °F 15.8 °F 19.4 °F 69% 29.85 in 1.8 mi ESE 18.4 mph 25.3 mph N/A Snow Light Snow
4:55 AM 28.4 °F 15.4 °F 19.4 °F 69% 29.85 in 3.0 mi ESE 19.6 mph 24.2 mph N/A Snow Light Snow
5:15 AM 28.4 °F 15.1 °F 19.4 °F 69% 29.85 in 2.5 mi ESE 20.7 mph 26.5 mph N/A Snow Light Snow
5:36 AM 28.4 °F 15.4 °F 19.4 °F 69% 29.86 in 1.2 mi East 19.6 mph 26.5 mph N/A Snow Light Snow
5:55 AM 28.4 °F 15.1 °F 19.4 °F 69% 29.85 in 2.0 mi ESE 20.7 mph 26.5 mph N/A Snow Light Snow
6:15 AM 28.4 °F 15.1 °F 19.4 °F 69% 29.86 in 2.5 mi ESE 20.7 mph 26.5 mph N/A Snow Light Snow
6:36 AM 28.4 °F 15.1 °F 19.4 °F 69% 29.86 in 3.0 mi East 20.7 mph 25.3 mph N/A Snow Light Snow
6:55 AM 28.4 °F 13.8 °F 19.4 °F 69% 29.86 in 2.5 mi ESE 25.3 mph 31.1 mph N/A Snow Light Snow
7:15 AM 28.4 °F 14.4 °F 19.4 °F 69% 29.86 in 4.0 mi ESE 23.0 mph - N/A   Haze
7:35 AM 28.4 °F 14.1 °F 19.4 °F 69% 29.86 in 4.0 mi ESE 24.2 mph 29.9 mph N/A   Haze
7:55 AM 28.4 °F 14.1 °F 19.4 °F 69% 29.87 in 3.0 mi ESE 24.2 mph - N/A Snow Light Snow
8:15 AM 28.4 °F 15.1 °F 19.4 °F 69% 29.87 in 4.0 mi ESE 20.7 mph 26.5 mph N/A Snow Light Snow
8:35 AM 28.4 °F 15.1 °F 17.6 °F 64% 29.88 in 7.0 mi ESE 20.7 mph 26.5 mph N/A   Overcast
8:55 AM 28.4 °F 15.8 °F 17.6 °F 64% 29.88 in 5.0 mi ESE 18.4 mph 24.2 mph N/A Snow Light Snow
9:15 AM 28.4 °F 15.4 °F 17.6 °F 64% 29.88 in 5.0 mi ESE 19.6 mph 25.3 mph N/A Snow Light Snow
9:35 AM 28.4 °F 15.1 °F 17.6 °F 64% 29.88 in 7.0 mi ESE 20.7 mph - N/A Snow Light Snow
9:55 AM 28.4 °F 15.4 °F 17.6 °F 64% 29.88 in 7.0 mi ESE 19.6 mph 26.5 mph N/A   Overcast
10:15 AM 28.4 °F 15.1 °F 17.6 °F 64% 29.88 in 7.0 mi ESE 20.7 mph - N/A   Overcast
10:35 AM 28.4 °F 15.4 °F 17.6 °F 64% 29.88 in 7.0 mi ESE 19.6 mph - N/A   Overcast
10:55 AM 28.4 °F 15.4 °F 19.4 °F 69% 29.89 in 5.0 mi ESE 19.6 mph - N/A   Haze
11:15 AM 28.4 °F 14.7 °F 19.4 °F 69% 29.88 in 5.0 mi ESE 21.9 mph 27.6 mph N/A   Haze
11:35 AM 28.4 °F 15.1 °F 19.4 °F 69% 29.88 in 4.0 mi ESE 20.7 mph - N/A   Haze
11:55 AM 28.4 °F 16.2 °F 19.4 °F 69% 29.89 in 5.0 mi ESE 17.3 mph - N/A   Haze
12:15 PM 28.4 °F 16.6 °F 19.4 °F 69% 29.90 in 4.0 mi ESE 16.1 mph - N/A   Haze
12:55 PM 28.4 °F 16.2 °F 19.4 °F 69% 29.89 in 4.0 mi ESE 17.3 mph 21.9 mph N/A   Haze
1:15 PM 30.2 °F 18.5 °F 19.4 °F 64% 29.89 in 3.0 mi ESE 17.3 mph - N/A   Haze
1:35 PM 30.2 °F 19.3 °F 21.2 °F 69% 29.89 in 4.0 mi ESE 15.0 mph - N/A   Haze
1:55 PM 30.2 °F 18.5 °F 21.2 °F 69% 29.89 in 4.0 mi ESE 17.3 mph - N/A   Haze
2:15 PM 28.4 °F 16.6 °F 21.2 °F 74% 29.89 in 4.0 mi ESE 16.1 mph - N/A   Haze
2:35 PM 28.4 °F 16.2 °F 21.2 °F 74% 29.89 in 2.0 mi ESE 17.3 mph - N/A   Haze
2:55 PM 28.4 °F 16.6 °F 21.2 °F 74% 29.90 in 2.0 mi ESE 16.1 mph - N/A   Haze
3:35 PM 28.4 °F 15.8 °F 21.2 °F 74% 29.90 in 0.5 mi ESE 18.4 mph - N/A Snow Snow
3:55 PM 28.4 °F 17.0 °F 21.2 °F 74% 29.90 in 1.2 mi ESE 15.0 mph - N/A Snow Light Snow
4:15 PM 28.4 °F 17.5 °F 21.2 °F 74% 29.90 in 1.8 mi ESE 13.8 mph - N/A Snow Light Snow
4:35 PM 28.4 °F 17.0 °F 21.2 °F 74% 29.90 in 1.8 mi East 15.0 mph - N/A Snow Light Snow
4:55 PM 28.4 °F 16.2 °F 21.2 °F 74% 29.91 in 1.2 mi ESE 17.3 mph - N/A Snow Light Snow
5:15 PM 28.4 °F 17.0 °F 21.2 °F 74% 29.91 in 1.8 mi ESE 15.0 mph - N/A Snow Light Snow
5:35 PM 28.4 °F 17.0 °F 21.2 °F 74% 29.91 in 1.5 mi ESE 15.0 mph - N/A Snow Light Snow
5:55 PM 28.4 °F 17.5 °F 19.4 °F 69% 29.92 in 4.0 mi ESE 13.8 mph - N/A Snow Light Snow
6:15 PM 28.4 °F 17.5 °F 19.4 °F 69% 29.93 in 3.0 mi ESE 13.8 mph - N/A Snow Light Snow
6:35 PM 28.4 °F 18.0 °F 19.4 °F 69% 29.95 in 7.0 mi ESE 12.7 mph - N/A   Overcast
6:55 PM 28.4 °F 18.5 °F 19.4 °F 69% 29.95 in 7.0 mi ESE 11.5 mph - N/A Snow Light Snow
7:15 PM 28.4 °F 18.0 °F 19.4 °F 69% 29.97 in 5.0 mi SE 12.7 mph - N/A Snow Light Snow
7:35 PM 28.4 °F 18.0 °F 19.4 °F 69% 29.97 in 7.0 mi ESE 12.7 mph - N/A Snow Light Snow
7:55 PM 28.4 °F 17.5 °F 19.4 °F 69% 29.97 in 7.0 mi ESE 13.8 mph - N/A Snow Light Snow
8:35 PM 28.4 °F 17.0 °F 17.6 °F 64% 29.96 in 10.0 mi ESE 15.0 mph - N/A Snow Light Snow
8:55 PM 28.4 °F 17.0 °F 19.4 °F 69% 29.96 in 10.0 mi ESE 15.0 mph 20.7 mph N/A   Overcast
9:15 PM 28.4 °F 16.6 °F 19.4 °F 69% 29.97 in 10.0 mi ESE 16.1 mph - N/A   Overcast
9:35 PM 28.4 °F 17.0 °F 19.4 °F 69% 29.98 in 10.0 mi ESE 15.0 mph - N/A   Overcast
9:55 PM 28.4 °F 17.5 °F 19.4 °F 69% 29.97 in 10.0 mi ESE 13.8 mph - N/A   Overcast
10:15 PM 28.4 °F 17.0 °F 19.4 °F 69% 29.96 in 7.0 mi ESE 15.0 mph - N/A   Overcast
10:35 PM 28.4 °F 17.5 °F 19.4 °F 69% 29.96 in 7.0 mi ESE 13.8 mph - N/A   Overcast
10:55 PM 28.4 °F 16.6 °F 19.4 °F 69% 29.96 in 7.0 mi ESE 16.1 mph - N/A   Overcast
11:15 PM 28.4 °F 17.5 °F 19.4 °F 69% 29.95 in 7.0 mi ESE 13.8 mph - N/A   Overcast
11:35 PM 28.4 °F 18.0 °F 19.4 °F 69% 29.95 in 5.0 mi ESE 12.7 mph - N/A   Haze
11:55 PM 28.4 °F 17.5 °F 21.2 °F 74% 29.94 in 5.0 mi ESE 13.8 mph - N/A   Haze